Location: Unspecified
(0.0000°N, 0.0000°E)
Time: 23:41:17
(UTC+00:00)

Vanguard 2 Rocket - Pass Details

Date: 19 December 2018
Orbit: 554 x 3327 km, 32.9° (Epoch: 19 January)

Event Time Altitude Azimuth Distance (km) Brightness Sun altitude
Rises 23:16:53 0° 228° (SW) 7,048 11.8 -64.6°
Reaches altitude 10° 23:22:15 10° 224° (SW) 5,750 11.2 -65.1°
Enters shadow 23:29:56 29° 213° (SSW) 3,826 10.0 -65.6°
Maximum altitude 23:38:03 56° 150° (SSE) 2,295 - -66.1°
Drops below altitude 10° 23:47:04 10° 74° (ENE) 3,437 - -66.4°
Sets 23:49:26 0° 69° (ENE) 4,127 - -66.5°
